Theta_e
356 356 357 358 357 357 357 357 356 355 356 357 357 357 357 357 356 356 356 357 357 357 359 361 362 362 361 360 360 359 359 359 358 358 357 356 354 349 346 346 347 347
356 356 356 357 358 358 358 358 358 356 356 357 357 357 358 358 357 357 357 358 358 358 359 360 361 361 361 361 360 359 358 358 358 358 357 356 355 351 348 347 347 346
357 357 356 357 357 357 358 359 359 358 356 357 357 357 358 359 359 359 358 357 358 359 359 360 360 360 360 361 361 359 358 358 358 358 358 357 355 353 349 348 346 343
357 357 357 356 356 356 356 358 359 359 357 357 358 359 358 358 359 360 359 358 358 359 360 359 359 359 360 360 361 360 358 358 358 358 359 357 356 355 351 349 348 342
357 357 357 356 356 356 356 356 357 359 359 358 358 359 360 360 359 359 359 358 358 359 359 359 358 359 360 360 360 360 359 358 359 358 359 358 356 355 351 350 350 346
357 357 357 357 357 357 356 356 355 357 359 360 359 360 361 361 360 359 359 359 358 359 359 359 359 359 360 360 360 360 360 358 358 358 359 358 357 355 352 350 351 351
358 357 357 357 357 357 357 357 356 356 357 360 361 361 361 362 363 361 359 359 359 359 360 359 359 359 359 361 361 361 361 359 359 359 358 358 358 356 354 351 350 351
358 357 357 357 358 358 358 357 357 356 356 358 360 361 362 361 362 362 361 359 358 359 360 359 360 360 360 361 362 362 362 361 360 360 359 359 359 358 355 353 351 350
358 358 357 357 358 358 358 358 358 357 356 357 358 360 362 361 361 361 361 360 358 358 359 360 360 360 361 361 362 362 362 361 361 360 360 359 359 359 357 354 353 352
359 359 358 358 358 358 358 358 358 358 357 357 357 358 361 362 361 360 360 361 360 359 359 359 360 360 361 361 361 361 361 361 361 360 359 359 358 358 358 355 353 352
360 359 358 358 358 358 358 358 359 359 358 357 358 358 359 361 362 361 359 360 361 360 359 358 359 360 361 361 361 361 360 360 360 359 359 359 358 357 357 356 354 353
361 360 359 359 358 358 358 358 358 359 359 359 358 359 359 360 361 362 360 359 360 360 360 359 359 360 360 361 361 361 360 360 359 358 358 359 359 358 357 356 355 353
362 361 360 359 358 358 358 358 358 359 359 360 359 359 360 360 361 362 361 360 359 359 360 361 360 360 361 361 361 361 360 360 359 358 358 358 359 359 357 356 355 354
362 361 360 360 359 358 357 358 358 358 358 359 360 360 360 360 361 361 361 361 360 358 359 360 361 361 361 361 361 361 360 360 360 359 358 358 358 359 359 357 356 355
362 361 361 360 359 359 358 358 358 358 357 358 359 360 359 359 359 360 362 362 361 360 359 360 361 362 362 361 361 361 360 360 360 360 359 359 358 359 359 359 357 356
362 361 360 361 360 359 359 358 358 358 357 357 358 359 358 358 358 359 361 361 362 362 361 360 361 362 363 362 361 360 360 360 360 361 360 360 359 359 359 359 358 357
362 362 361 360 360 361 360 359 358 358 357 356 357 359 360 359 359 359 360 361 362 362 362 362 361 361 362 363 362 361 360 360 360 361 361 361 360 359 359 358 359 358
364 362 362 361 360 361 361 360 358 357 357 356 357 359 360 360 360 360 359 361 362 362 362 363 362 361 361 361 362 362 361 360 360 361 361 361 361 361 360 359 359 359
365 364 363 362 361 360 360 361 359 357 357 357 357 358 360 361 361 361 360 360 361 363 362 362 363 362 362 361 361 362 361 360 360 360 361 361 362 361 361 360 360 359
367 366 364 363 363 361 360 361 360 358 357 357 357 357 359 361 362 362 362 361 360 362 363 363 363 363 363 362 362 361 361 361 361 360 361 361 362 361 361 361 360 360
368 366 365 365 364 363 362 361 360 360 358 357 357 357 358 360 361 362 363 362 361 361 362 363 363 363 364 363 363 362 362 362 361 361 361 360 361 361 361 361 360 360
368 367 366 366 365 364 364 362 361 361 360 358 357 357 358 358 359 361 361 362 363 362 361 362 362 363 364 364 364 364 363 363 362 361 361 360 360 360 360 360 360 360
368 368 366 367 366 366 365 364 363 362 362 360 359 358 358 359 358 359 360 361 363 363 362 362 361 362 364 365 365 365 365 364 363 362 361 361 360 359 359 359 360 360
368 368 368 367 367 367 367 366 365 364 364 363 361 360 359 359 359 359 360 360 362 363 363 362 362 361 362 364 366 367 366 366 364 362 362 361 361 361 360 359 359 359
368 368 368 368 367 367 368 368 367 366 366 365 364 363 361 360 361 361 361 362 362 362 363 363 363 362 361 362 364 366 367 367 365 363 362 362 362 361 361 360 360 360
369 369 369 368 368 368 368 369 368 368 368 367 367 366 364 363 363 363 364 364 363 363 363 364 365 364 364 363 364 364 367 367 366 364 363 363 363 362 362 362 361 360
Wind_Speed
39 38 37 35 35 34 33 34 34 34 32 31 31 31 32 32 30 28 29 29 28 27 26 25 23 23 23 21 20 19 19 19 20 18 17 18 17 16 15 16 17 14
39 39 38 36 35 34 33 34 35 35 34 32 32 31 30 31 30 28 28 29 29 28 27 26 24 24 23 22 21 21 20 20 21 19 18 19 20 18 17 18 19 17
40 39 39 37 37 36 35 34 34 35 35 33 32 31 30 30 30 29 29 29 30 29 28 28 26 25 25 24 23 23 22 21 21 21 19 19 22 21 18 18 20 20
42 41 41 40 39 39 37 34 33 33 34 33 32 32 31 30 30 29 29 30 31 31 30 30 28 27 26 26 25 24 24 23 22 22 21 20 22 22 20 19 20 21
45 43 43 42 40 38 37 35 34 32 32 33 33 31 31 31 31 30 30 31 32 32 31 31 30 29 28 27 27 26 26 26 24 23 22 22 23 23 21 21 21 21
44 44 43 42 40 39 37 37 36 34 33 33 33 33 31 31 32 33 33 32 33 33 32 32 31 31 30 29 29 28 28 27 27 26 25 24 24 24 24 23 23 23
41 43 42 41 40 39 39 39 38 36 35 33 32 33 32 31 31 33 34 34 33 33 33 33 32 32 31 31 31 30 30 29 28 28 27 26 26 27 27 26 25 25
40 41 41 40 39 39 39 39 38 37 36 34 33 33 34 34 33 32 34 35 34 34 34 34 33 33 32 32 33 32 32 31 29 29 29 28 28 28 29 29 27 27
40 40 40 39 38 39 39 38 38 38 37 35 35 34 34 35 35 33 33 35 36 35 34 35 34 34 34 34 34 34 34 33 32 31 31 31 31 30 31 31 29 29
40 40 40 40 39 39 39 38 37 37 37 37 36 35 34 35 36 35 34 34 36 37 36 36 36 36 36 36 36 36 36 35 34 33 33 32 33 33 32 32 32 31
40 40 40 41 41 39 39 38 37 36 37 37 37 36 35 35 35 36 36 35 36 37 38 39 38 38 38 38 38 38 37 37 36 35 34 34 34 34 34 34 34 34
40 40 40 41 42 41 39 39 38 36 37 38 38 37 36 35 35 36 37 38 38 38 39 40 40 39 39 39 39 38 38 37 37 36 36 35 35 35 36 36 36 36
42 42 42 42 42 42 40 39 39 38 38 38 39 38 36 36 36 37 38 39 40 40 40 40 41 41 40 40 39 38 38 38 37 37 36 36 36 36 37 37 37 37
43 43 43 42 42 42 41 40 40 39 38 38 38 39 38 38 37 38 39 40 40 41 41 40 40 41 40 40 39 39 38 38 38 37 37 37 36 37 38 39 39 39
42 41 42 42 41 41 42 41 40 40 39 38 38 39 40 39 38 38 39 39 40 41 42 41 40 40 41 40 41 40 39 39 38 38 38 37 37 36 37 38 40 40
41 40 40 40 40 41 43 42 41 40 39 39 39 40 40 40 39 38 38 39 40 40 40 40 40 40 41 42 42 42 41 39 38 38 38 38 38 37 37 38 39 41
40 40 39 40 41 41 42 43 41 40 40 39 39 39 39 39 40 39 38 38 39 40 39 40 41 41 42 43 43 43 42 40 39 38 39 39 39 38 38 39 39 40
39 40 39 40 41 41 41 42 42 40 39 39 39 39 39 39 40 40 39 38 38 40 40 40 42 43 43 43 44 45 44 43 40 39 39 39 39 39 39 39 39 39
39 39 39 39 41 41 41 40 40 40 39 39 40 39 39 40 40 40 40 38 37 38 40 42 42 44 44 45 45 46 46 45 43 40 39 39 40 40 40 39 39 38
40 39 39 39 39 40 39 38 39 40 40 39 39 39 39 39 40 39 40 40 39 38 39 42 42 43 45 46 46 46 47 47 46 42 40 40 40 41 41 40 39 38
41 40 39 39 38 38 38 38 38 39 39 39 38 39 40 39 39 39 40 41 41 39 38 40 42 43 45 46 47 47 47 48 47 44 41 39 40 40 41 40 40 39
40 40 39 38 37 36 36 37 38 38 39 39 38 37 38 38 38 39 40 40 41 40 39 39 39 40 43 45 46 46 46 47 48 45 41 39 39 39 39 39 39 39
39 39 38 38 37 36 36 37 38 38 38 38 37 36 35 36 38 39 39 39 39 39 41 40 38 36 38 41 44 44 45 46 47 45 42 40 40 38 37 38 38 39
38 38 38 38 37 37 37 36 36 36 36 36 36 36 35 35 36 36 36 36 37 38 39 40 38 35 34 34 37 41 44 45 45 43 42 41 39 37 37 37 38 39
36 38 38 37 38 38 36 35 35 34 34 34 34 34 34 33 31 31 32 33 34 36 37 37 36 35 33 32 31 34 40 44 44 42 41 40 38 36 37 38 39 39
36 37 38 37 37 36 34 33 33 32 31 31 32 32 32 31 30 29 29 31 32 33 34 34 33 33 32 32 29 28 33 40 42 42 40 38 37 37 38 39 40 38
Wind_Direction
199 199 200 200 201 203 202 202 202 203 205 204 202 203 204 206 205 205 210 212 213 214 213 212 211 208 210 210 207 207 208 205 205 206 204 203 206 210 206 197 192 195
200 201 202 202 203 204 204 205 204 203 205 206 205 205 204 205 205 205 208 211 213 214 213 212 212 211 211 211 207 206 208 207 207 207 205 203 205 209 209 202 197 199
201 202 203 204 204 205 205 206 206 205 206 206 207 207 206 204 205 206 208 211 213 214 213 211 212 213 213 212 210 209 208 206 205 206 207 204 205 210 212 207 204 204
201 203 204 205 206 206 206 206 206 206 206 207 207 208 208 207 206 207 209 211 213 213 212 211 211 212 212 213 213 213 211 208 205 205 208 207 207 211 212 208 208 209
202 203 205 206 207 207 207 206 207 207 206 207 207 208 209 209 208 209 210 212 213 212 212 211 211 212 212 212 214 214 213 211 209 206 208 209 209 212 211 208 208 211
203 204 205 206 207 207 207 208 208 208 207 207 207 207 208 209 210 210 210 211 213 212 210 209 209 210 212 212 212 213 214 214 212 209 209 211 211 212 212 210 210 212
206 206 206 206 206 207 207 208 208 208 208 208 207 207 206 207 209 210 209 210 211 211 210 209 208 208 210 211 210 211 213 214 214 211 211 212 213 213 213 213 214 214
209 208 208 207 206 206 207 208 208 209 209 208 208 208 208 208 209 209 209 209 209 209 209 208 208 208 209 210 209 210 211 212 213 213 213 213 213 215 214 214 217 216
210 210 209 208 207 207 208 208 208 208 208 208 209 209 209 210 210 210 209 208 208 208 208 208 209 210 209 210 211 210 210 210 211 212 213 214 213 214 215 215 216 218
210 209 208 208 208 208 209 208 208 208 208 209 210 210 210 211 211 211 211 209 209 208 209 209 210 211 211 211 213 213 212 211 210 211 214 216 215 215 215 215 216 218
210 209 208 207 208 209 209 209 209 208 208 209 209 209 210 211 210 210 211 211 210 210 210 211 211 212 212 212 214 215 214 213 212 212 214 217 218 218 216 215 216 219
209 209 208 208 208 208 209 209 208 208 208 208 208 209 209 210 211 210 211 212 212 212 212 213 213 213 213 214 214 214 215 215 214 214 214 216 219 220 219 218 218 219
208 208 208 208 208 208 208 208 208 208 208 208 208 208 208 209 210 211 212 213 214 214 214 215 214 214 215 214 214 214 215 215 215 215 215 216 218 220 221 221 221 221
208 208 209 208 208 207 208 208 208 208 208 208 208 208 209 210 210 212 213 214 215 216 216 216 216 215 215 214 214 214 215 216 216 216 216 216 218 220 222 222 223 223
208 208 208 208 207 207 207 208 208 208 208 208 208 208 210 211 211 213 214 214 215 217 217 217 217 216 216 215 215 214 215 216 216 217 217 217 218 220 222 223 224 224
208 208 208 207 207 207 207 208 208 208 208 208 209 210 211 212 213 214 215 215 216 216 217 217 218 218 218 217 216 215 215 216 216 217 218 219 219 220 221 223 224 225
206 207 207 206 207 207 208 208 207 207 207 208 209 210 211 212 213 214 215 216 216 216 216 217 218 220 219 219 219 218 217 217 217 218 218 219 220 221 222 223 225 226
204 205 206 206 207 207 208 208 208 207 207 208 208 209 210 211 213 214 215 215 216 216 217 218 219 221 220 220 220 220 220 219 219 219 219 220 221 222 223 224 224 226
202 203 205 206 207 208 209 208 208 208 208 208 208 209 209 211 213 214 215 215 215 215 217 219 221 221 221 221 222 222 222 221 221 221 221 221 222 223 224 224 225 225
201 202 204 205 207 207 208 208 208 208 209 209 209 209 210 211 213 214 215 216 216 216 217 219 221 222 222 222 222 223 223 222 222 223 224 224 224 225 225 225 225 225
200 201 202 204 206 206 206 207 208 209 210 210 210 211 211 212 213 215 216 217 218 218 219 220 222 223 223 223 223 223 223 223 223 224 225 227 228 228 228 228 228 227
198 199 200 203 204 204 205 207 208 210 210 210 211 213 214 214 215 216 218 219 219 220 222 224 224 224 224 224 224 224 223 223 223 225 227 229 231 232 232 232 231 230
198 198 199 201 202 202 205 207 208 210 211 211 212 213 215 216 217 219 220 220 221 221 223 226 228 227 227 227 226 224 223 222 222 224 227 230 233 234 235 236 235 234
199 198 198 199 200 202 205 206 208 210 211 211 212 214 216 218 220 221 222 223 223 224 225 228 230 231 231 231 228 225 223 222 222 223 227 231 234 236 237 239 239 238
199 199 199 199 201 203 205 206 207 209 210 212 213 216 219 221 222 224 225 226 226 228 229 231 232 234 234 235 233 228 225 223 221 222 226 229 232 236 238 240 241 241
199 199 199 200 202 203 204 205 206 207 208 210 213 216 219 221 223 225 227 228 229 230 231 232 233 234 235 237 238 234 229 225 222 222 225 228 230 233 237 239 241 242